Doylestown, PA

4:51 PM EST on December 06, 2019 (GMT -0500)
Doylestown

Weather History for KDYL - October, 2019

Change the Weather History Date:

Thursday, October 31, 2019

  Actual Average (WUND) Record (WUND)
Temperature  
Mean Temperature 67 °F -  
Max Temperature 73 °F - - (-1)
Min Temperature 61 °F - - (-1)
Cooling Degree Days 2    
Growing Degree Days 17 (Base 50)    
Moisture  
Dew Point 64 °F    
Average Humidity 88    
Maximum Humidity 93    
Minimum Humidity 76    
Precipitation  
Precipitation 0.79 in - - ()
Sea Level Pressure  
Sea Level Pressure 29.82 in    
Wind  
Wind Speed 8 mph (South)    
Max Wind Speed 25 mph    
Max Gust Speed 46 mph    
Visibility 8 miles    
Events Rain    
Averages and records for this station are not official NWS values.
T = Trace of Precipitation, MM = Missing Value Source: NWS Daily Summary

Daily Weather History Graph

Daily Weather History Graph

Search for Another Location

Airport or City:

Astronomy

Oct. 31, 2019 Rise Set
Actual Time 7:28 AM EDT 5:58 PM EDT
Civil Twilight 7:00 AM EDT 6:27 PM EDT
Nautical Twilight 6:28 AM EDT 6:59 PM EDT
Astronomical Twilight 5:56 AM EDT 7:30 PM EDT
Moon 11:14 AM EDT (10/31) 8:52 PM EDT (10/31)
Length of Visible Light 11h 26m
Length of Day
10h 30m
Waxing Crescent, 15% of the Moon is Illuminated
Oct 31
Waxing Crescent
Nov 4
First Quarter
Nov 12
Full
Nov 19
Last Quarter
Nov 26
New

Hourly Weather History & Observations

Time (EDT) Temp. Dew Point Humidity Pressure Visibility Wind Dir Wind Speed Gust Speed Precip Events Conditions
12:54 AM 62.1 °F 60.1 °F 93% 30.06 in 10.0 mi Variable 5.8 mph - 0.07 in Rain Light Rain
1:54 AM 62.1 °F 59.0 °F 90% 30.04 in 10.0 mi South 9.2 mph - 0.04 in Rain Light Rain
2:38 AM 61.0 °F 59.0 °F 93% 30.02 in 10.0 mi Variable 6.9 mph - 0.02 in   Overcast
2:54 AM 61.0 °F 59.0 °F 93% 30.01 in 10.0 mi Variable 5.8 mph - 0.02 in Rain Light Rain
3:33 AM 61.0 °F 57.9 °F 90% 30.00 in 9.0 mi South 3.5 mph - 0.02 in Rain Rain
3:54 AM 61.0 °F 59.0 °F 93% 29.99 in 6.0 mi SSE 4.6 mph - 0.05 in Rain Rain
4:11 AM 61.0 °F 59.0 °F 93% 29.98 in 8.0 mi SSE 6.9 mph - 0.02 in Rain Light Rain
4:38 AM 61.0 °F 59.0 °F 93% 29.98 in 6.0 mi SE 4.6 mph - 0.06 in Rain Light Rain
4:54 AM 61.0 °F 59.0 °F 93% 29.97 in 5.0 mi Variable 6.9 mph - 0.08 in Rain Rain
5:54 AM 62.1 °F 60.1 °F 93% 29.94 in 10.0 mi SSE 5.8 mph - 0.07 in   Overcast
6:54 AM 64.0 °F 62.1 °F 93% 29.92 in 10.0 mi SSE 10.4 mph 17.3 mph 0.00 in Rain Light Rain
7:14 AM 64.9 °F 63.0 °F 93% 29.92 in 8.0 mi South 8.1 mph - 0.01 in Rain Light Rain
7:54 AM 66.9 °F 64.0 °F 90% 29.91 in 10.0 mi South 8.1 mph - 0.03 in   Overcast
8:02 AM 66.9 °F 64.0 °F 90% 29.91 in 10.0 mi South 9.2 mph 17.3 mph N/A   Overcast
8:28 AM 68.0 °F 64.9 °F 90% 29.92 in 10.0 mi South 11.5 mph 18.4 mph N/A   Overcast
8:54 AM 68.0 °F 64.9 °F 90% 29.90 in 10.0 mi South 10.4 mph 21.9 mph 0.00 in   Overcast
9:15 AM 68.0 °F 64.9 °F 90% 29.92 in 10.0 mi South 9.2 mph 17.3 mph N/A   Overcast
9:44 AM 69.1 °F 66.0 °F 90% 29.90 in 10.0 mi South 9.2 mph 16.1 mph N/A   Overcast
9:54 AM 69.1 °F 66.0 °F 90% 29.90 in 4.0 mi South 11.5 mph 18.4 mph 0.01 in Rain Rain
9:58 AM 69.1 °F 66.0 °F 90% 29.90 in 2.0 mi Variable 6.9 mph 18.4 mph 0.01 in Rain Heavy Rain
10:01 AM 69.1 °F 66.0 °F 90% 29.90 in 1.8 mi South 8.1 mph 18.4 mph 0.01 in Rain Heavy Rain
10:06 AM 69.1 °F 66.0 °F 90% 29.90 in 3.0 mi South 8.1 mph 16.1 mph 0.02 in Rain Rain
10:38 AM 69.1 °F 66.0 °F 90% 29.89 in 4.0 mi South 8.1 mph - 0.09 in Rain Rain
10:54 AM 69.1 °F 66.0 °F 90% 29.87 in 4.0 mi Variable 6.9 mph - 0.12 in Rain Light Rain
11:54 AM 70.0 °F 66.9 °F 90% 29.85 in 10.0 mi Variable 6.9 mph 16.1 mph 0.13 in Rain Light Rain
12:47 PM 71.1 °F 66.9 °F 87% 29.82 in 10.0 mi South 9.2 mph - 0.09 in   Overcast
12:54 PM 71.1 °F 66.9 °F 87% 29.81 in 10.0 mi South 9.2 mph 20.7 mph 0.10 in   Overcast
1:54 PM 72.0 °F 66.9 °F 84% 29.76 in 10.0 mi South 10.4 mph - 0.02 in   Overcast
2:15 PM 73.0 °F 66.9 °F 81% 29.75 in 10.0 mi South 11.5 mph 19.6 mph 0.00 in   Overcast
2:54 PM 73.0 °F 66.9 °F 81% 29.73 in 10.0 mi SSE 12.7 mph 21.9 mph 0.00 in   Overcast
3:54 PM 73.0 °F 66.0 °F 79% 29.70 in 10.0 mi South 8.1 mph - N/A   Overcast
4:54 PM 73.0 °F 66.9 °F 81% 29.68 in 10.0 mi South 9.2 mph - 0.01 in   Overcast
5:54 PM 73.0 °F 66.9 °F 81% 29.65 in 10.0 mi SSE 10.4 mph 21.9 mph N/A   Overcast
6:54 PM 73.0 °F 66.9 °F 81% 29.63 in 10.0 mi South 11.5 mph 27.6 mph N/A   Overcast
7:04 PM 73.0 °F 66.9 °F 81% 29.63 in 10.0 mi South 15.0 mph 25.3 mph N/A   Overcast
7:54 PM 73.0 °F 66.9 °F 81% 29.59 in 10.0 mi South 12.7 mph 25.3 mph N/A   Overcast
8:54 PM 73.0 °F 66.0 °F 79% 29.55 in 10.0 mi SSE 16.1 mph 27.6 mph N/A   Mostly Cloudy
9:54 PM 73.0 °F 64.9 °F 76% 29.54 in 10.0 mi South 13.8 mph 26.5 mph N/A   Overcast
10:54 PM 73.0 °F 66.0 °F 79% 29.50 in 10.0 mi SSE 16.1 mph 27.6 mph 0.01 in   Unknown
11:24 PM 72.0 °F 66.9 °F 84% 29.48 in 10.0 mi South 16.1 mph 27.6 mph 0.01 in Rain Light Rain
11:50 PM 68.0 °F 64.4 °F 88% 29.56 in 2.0 mi West 25.3 mph 46.0 mph 0.03 in Rain Heavy Rain
11:54 PM 64.9 °F 62.1 °F 90% 29.60 in 2.5 mi North - - 0.03 in Rain Heavy Rain